sat.trackr.live / text

‹ back to catalog

UNKNOWN

NORAD 82311

UNKNOWN UNKNOWN UNKNOWN

§ Identity

Operator
Country
Launch date
Launch site
Launch vehicle
Mass (kg)
RCS (m²)

External: N2YO · Heavens-Above

§ Orbital elements

Epoch: 2026-09-16T08:58:49.018944Z

Period
106.28 min
Inclination
99.4115°
Eccentricity
0.0107382
Mean motion
13.54882781 rev/d
Perigee alt
974.5 km
Apogee alt
1,134.2 km
Semi-major
7,432.5 km
B*
7.3465e-4
RAAN
305.3443°
Arg perigee
326.6875°
Mean anomaly
32.7536°
Rev number
58,791

§ Raw data

UNKNOWN1 82311U          26259.37417846  .00000481  00000+0  73465-3 0  99992 82311  99.4115 305.3443 0107382 326.6875  32.7536 13.54882781587919

JSON: /api/v1/satellites/82311 · /tle

For live sub-satellite position, see the globe view (requires WebGL).

§ Visibility from observer

Set your observer location to see the next 7 days of passes ≥ 10°. The values pass through the URL so the page stays shareable.

No JS? Fill the form by hand. The geolocation button needs JavaScript.